User: anonymous   Login
Location: Newark
(49.4900°N, 20.6656°E)
Time: 09:25:34
(UTC+00:00)
Language:

STARLINK-1646 - Orbit

View from above orbital plane
View from above orbital plane
View from above satellite
View from above satellite

Ground track
Ground track

The orbit data is extracted from the following two-line orbital elements,

1 46351C 20062AD  20337.09740249 -.01112155  00000-0 -47562-1 0  3378
2 46351  52.9971 352.3869 0001341  70.8606  39.9855 15.23421757    13
Epoch (UTC): 02 December 2020 02:20:15
Eccentricity: 0.0001341
inclination: 52.9971°
perigee height: 494 km
apogee height: 496 km
right ascension of ascending node: 352.3869°
argument of perigee: 70.8606°
revolutions per day: 15.23421757
mean anomaly at epoch: 39.9855°
orbit number at epoch: 1

The dashed part of the orbit path shows where the satellite is in the earth's shadow,  

DLR